Warsaw, IN

1:35 PM EST on November 17, 2017 (GMT -0500)
Warsaw Municipal

Weather History for KASW - November, 2010

Change the Weather History Date:

Thursday, November 25, 2010

  Actual Average Record
Temperature  
Mean Temperature 38 °F -  
Max Temperature 45 °F 44 °F 62 °F (1966)
Min Temperature 32 °F 29 °F -3 °F (1950)
Degree Days  
Heating Degree Days 26    
Moisture  
Dew Point 39 °F    
Average Humidity 96    
Maximum Humidity 99    
Minimum Humidity 87    
Precipitation  
Precipitation 0.65 in - - ()
Sea Level Pressure  
Sea Level Pressure 29.72 in    
Wind  
Wind Speed 11 mph (West)    
Max Wind Speed 25 mph    
Max Gust Speed 31 mph    
Visibility 4 miles    
Events Fog , Rain    
Averages and records for this station are not official NWS values.
T = Trace of Precipitation, MM = Missing Value Source: NWS Daily Summary

Daily Weather History Graph

Daily Weather History Graph

Search for Another Location

Airport or City:

Trip Planner

Search our weather history database for the weather conditions in past years. The results will help you decide how hot, cold, wet, or windy it might be!

Date:

Astronomy

Nov. 25, 2010 Rise Set
Actual Time 7:43 AM EST 5:17 PM EST
Civil Twilight 7:12 AM EST 5:47 PM EST
Nautical Twilight 6:38 AM EST 6:21 PM EST
Astronomical Twilight 6:05 AM EST 6:54 PM EST
Moon 9:14 PM EST (11/25) 11:12 AM EST (11/25)
Length of Visible Light 10h 34m
Length of Day
9h 34m
Waning Gibbous, 83% of the Moon is Illuminated
Nov 25
Waning Gibbous
Nov 28
Last Quarter
Dec 5
New
Dec 13
First Quarter
Dec 21
Full

Hourly Weather History & Observations

Time (EST) Temp. Windchill Dew Point Humidity Pressure Visibility Wind Dir Wind Speed Gust Speed Precip Events Conditions
12:05 AM 35.2 °F 24.7 °F 34.2 °F 96% 29.80 in 4.0 mi ESE 18.4 mph 24.2 mph 0.01 in Rain Rain
12:25 AM 35.8 °F 26.9 °F 34.7 °F 96% 29.80 in 5.0 mi ESE 13.8 mph 23.0 mph 0.04 in Rain Light Rain
12:45 AM 36.5 °F 27.4 °F 35.1 °F 95% 29.79 in 5.0 mi ESE 15.0 mph 23.0 mph 0.06 in Rain Light Rain
1:05 AM 36.5 °F 27.8 °F 35.4 °F 96% 29.80 in 2.5 mi ESE 13.8 mph 18.4 mph 0.02 in Rain Heavy Rain
1:25 AM 36.5 °F 26.7 °F 35.2 °F 95% 29.78 in 4.0 mi ESE 17.3 mph 23.0 mph 0.06 in Rain Rain
1:45 AM 36.5 °F 27.4 °F 35.1 °F 95% 29.76 in 2.5 mi ESE 15.0 mph 20.7 mph 0.14 in Rain Heavy Rain
2:05 AM 36.5 °F 29.7 °F 35.2 °F 95% 29.78 in 3.0 mi East 9.2 mph 17.3 mph 0.03 in Rain Heavy Rain
2:25 AM 36.5 °F 28.2 °F 35.2 °F 95% 29.75 in 4.0 mi ESE 12.7 mph 18.4 mph 0.10 in Rain Rain
2:45 AM 36.5 °F 28.7 °F 35.2 °F 95% 29.75 in 4.0 mi ESE 11.5 mph 21.9 mph 0.14 in Rain Heavy Rain
3:05 AM 36.5 °F 32.7 °F 35.6 °F 97% 29.76 in 7.0 mi SSE 4.6 mph - 0.01 in Rain Light Rain
3:25 AM 37.2 °F 30.0 °F 36.0 °F 95% 29.74 in 5.0 mi SE 10.4 mph 17.3 mph 0.01 in Rain Heavy Rain
3:45 AM 37.4 °F 31.4 °F 36.5 °F 97% 29.73 in 5.0 mi SE 8.1 mph - 0.02 in Rain Light Rain
4:05 AM 38.3 °F 31.9 °F 37.6 °F 97% 29.73 in 5.0 mi ESE 9.2 mph 16.1 mph N/A Rain Light Rain
4:25 AM 38.3 °F 31.9 °F 37.0 °F 95% 29.74 in 4.0 mi SE 9.2 mph - N/A   Light Drizzle
4:45 AM 38.3 °F 32.5 °F 37.4 °F 97% 29.74 in 4.0 mi ESE 8.1 mph - N/A   Overcast
5:05 AM 38.3 °F 30.9 °F 37.4 °F 97% 29.70 in 4.0 mi ESE 11.5 mph 17.3 mph N/A   Overcast
5:25 AM 38.5 °F 34.1 °F 37.8 °F 97% 29.72 in 4.0 mi SE 5.8 mph - N/A   Overcast
5:45 AM 38.8 °F 33.8 °F 38.3 °F 98% 29.71 in 7.0 mi ESE 6.9 mph - N/A   Overcast
6:05 AM 39.0 °F 34.0 °F 38.3 °F 97% 29.71 in 5.0 mi ESE 6.9 mph - N/A   Overcast
6:45 AM 39.2 °F 33.0 °F 38.5 °F 97% 29.69 in 4.0 mi SE 9.2 mph - N/A   Overcast
7:05 AM 39.6 °F 36.3 °F 39.2 °F 99% 29.73 in 5.0 mi North 4.6 mph - N/A   Overcast
7:25 AM 39.6 °F 37.4 °F 39.2 °F 99% 29.70 in 3.0 mi East 3.5 mph - N/A   Overcast
7:45 AM 39.9 °F 35.8 °F 39.4 °F 98% 29.70 in 3.0 mi SE 5.8 mph - N/A   Overcast
8:05 AM 41.0 °F 37.1 °F 40.6 °F 99% 29.68 in 1.8 mi ENE 5.8 mph - N/A   Light Drizzle
8:45 AM 42.6 °F 39.0 °F 42.1 °F 98% 29.69 in 1.2 mi WNW 5.8 mph - N/A   Overcast
9:05 AM 42.8 °F 40.1 °F 42.4 °F 99% 29.70 in 0.8 mi WNW 4.6 mph - N/A   Overcast
9:25 AM 43.2 °F 41.5 °F 42.8 °F 99% 29.70 in 0.5 mi West 3.5 mph - N/A Fog Fog
9:45 AM 43.3 °F 40.7 °F 43.0 °F 99% 29.72 in 0.2 mi West 4.6 mph - N/A Fog Fog
10:05 AM 43.2 °F - 42.8 °F 99% 29.72 in 0.2 mi Calm Calm - N/A Fog Fog
10:25 AM 43.7 °F - 43.3 °F 99% 29.71 in 0.2 mi Calm Calm - N/A Fog Fog
10:45 AM 44.4 °F 42.9 °F 43.9 °F 98% 29.73 in 0.2 mi West 3.5 mph - 0.01 in Fog Fog
11:05 AM 44.8 °F 43.3 °F 44.6 °F 99% 29.73 in 0.2 mi WSW 3.5 mph - N/A Fog Fog
11:25 AM 45.5 °F 42.5 °F 45.0 °F 98% 29.73 in 0.2 mi WSW 5.8 mph - N/A Fog Fog
11:45 AM 45.5 °F 41.3 °F 45.0 °F 98% 29.72 in 0.5 mi West 8.1 mph - N/A Fog Fog
12:05 PM 45.5 °F 41.8 °F 45.0 °F 98% 29.71 in 1.0 mi WNW 6.9 mph - N/A   Overcast
12:25 PM 44.8 °F 41.0 °F 44.6 °F 99% 29.70 in 1.0 mi NW 6.9 mph - N/A   Overcast
12:45 PM 44.6 °F 40.7 °F 44.2 °F 99% 29.70 in 0.8 mi WNW 6.9 mph - N/A Rain Light Rain
1:05 PM 44.2 °F 41.8 °F 43.9 °F 99% 29.70 in 1.5 mi WNW 4.6 mph - N/A   Light Drizzle
1:45 PM 44.2 °F 39.7 °F 43.9 °F 99% 29.68 in 2.5 mi NW 8.1 mph - N/A   Overcast
2:05 PM 43.7 °F 42.1 °F 43.2 °F 98% 29.65 in 1.8 mi NW 3.5 mph - N/A   Overcast
2:25 PM 43.7 °F 41.1 °F 43.0 °F 97% 29.66 in 1.8 mi NW 4.6 mph - N/A Rain Rain
2:45 PM 43.3 °F 39.2 °F 42.8 °F 98% 29.67 in 2.0 mi NW 6.9 mph - 0.02 in Rain Rain
3:25 PM 42.8 °F 39.3 °F 42.1 °F 97% 29.68 in 4.0 mi WNW 5.8 mph - 0.08 in Rain Heavy Rain
3:45 PM 42.8 °F 38.6 °F 42.1 °F 97% 29.68 in 4.0 mi West 6.9 mph - 0.14 in Rain Rain
4:05 PM 42.8 °F 37.5 °F 41.9 °F 97% 29.68 in 5.0 mi WNW 9.2 mph - 0.01 in Rain Rain
4:25 PM 42.3 °F 37.3 °F 41.4 °F 97% 29.67 in 5.0 mi WNW 8.1 mph - 0.04 in Rain Rain
4:45 PM 42.1 °F 36.1 °F 41.2 °F 97% 29.69 in 7.0 mi West 10.4 mph - 0.07 in Rain Rain
5:05 PM 41.9 °F 35.9 °F 40.6 °F 95% 29.70 in 7.0 mi WNW 10.4 mph 16.1 mph 0.01 in Rain Rain
5:25 PM 41.4 °F 35.7 °F 40.1 °F 95% 29.69 in 10.0 mi WNW 9.2 mph - 0.04 in Rain Light Rain
5:45 PM 41.0 °F 35.8 °F 40.1 °F 97% 29.68 in 10.0 mi West 8.1 mph - 0.06 in Rain Light Rain
6:05 PM 40.8 °F 34.1 °F 39.4 °F 95% 29.71 in 10.0 mi West 11.5 mph - N/A Rain Light Rain
6:25 PM 40.3 °F 33.9 °F 39.2 °F 96% 29.70 in 10.0 mi West 10.4 mph - 0.02 in Rain Light Rain
6:45 PM 40.1 °F 31.3 °F 38.8 °F 95% 29.72 in 10.0 mi WNW 17.3 mph - 0.03 in Rain Light Rain
7:05 PM 38.1 °F 28.8 °F 36.3 °F 93% 29.71 in 10.0 mi West 17.3 mph 24.2 mph N/A Rain Light Rain
7:25 PM 36.9 °F 27.5 °F 35.4 °F 95% 29.74 in 10.0 mi West 16.1 mph - 0.01 in Rain Light Rain
7:45 PM 36.0 °F 27.1 °F 34.7 °F 95% 29.73 in 7.0 mi West 13.8 mph - 0.02 in Rain Light Rain
8:05 PM 35.8 °F 24.2 °F 34.5 °F 95% 29.74 in 7.0 mi West 23.0 mph 26.5 mph N/A   Light Drizzle
8:25 PM 35.1 °F 24.5 °F 32.9 °F 92% 29.75 in 7.0 mi West 18.4 mph 24.2 mph N/A   Overcast
8:45 PM 34.5 °F 22.5 °F 32.0 °F 90% 29.74 in 10.0 mi WNW 23.0 mph 27.6 mph N/A   Overcast
9:05 PM 33.6 °F 22.2 °F 31.3 °F 91% 29.77 in 7.0 mi WNW 19.6 mph 28.8 mph N/A   Overcast
9:25 PM 32.5 °F 19.4 °F 29.1 °F 87% 29.78 in 10.0 mi WNW 25.3 mph 31.1 mph N/A   Overcast
9:45 PM 32.0 °F 20.1 °F 28.6 °F 87% 29.80 in 10.0 mi West 19.6 mph 26.5 mph N/A   Mostly Cloudy
10:05 PM 31.8 °F 21.8 °F 27.5 °F 84% 29.78 in 10.0 mi WNW 13.8 mph 23.0 mph N/A   Scattered Clouds
10:25 PM 31.5 °F 21.4 °F 25.5 °F 79% 29.80 in 10.0 mi West 13.8 mph - N/A   Clear
10:45 PM 30.9 °F 19.1 °F 24.3 °F 76% 29.80 in 10.0 mi West 18.4 mph 23.0 mph N/A   Clear
11:05 PM 30.2 °F 17.8 °F 19.9 °F 66% 29.81 in 10.0 mi WNW 19.6 mph 26.5 mph N/A   Clear
11:25 PM 28.9 °F 16.1 °F 18.1 °F 64% 29.83 in 10.0 mi WNW 19.6 mph 25.3 mph N/A   Clear
11:45 PM 28.4 °F 16.2 °F 16.2 °F 60% 29.85 in 10.0 mi West 17.3 mph 28.8 mph N/A   Clear